Time,TemperatureF,DewpointF,PressureIn,WindDirection,WindDirectionDegrees,WindSpeedMPH,WindSpeedGustMPH,Humidity,HourlyPrecipIn,Conditions,Clouds,dailyrainin,SoftwareType,DateUTC
2013-03-01 00:01:00,29.0,27.0,-100.00,South,175,0.0,4.0,92,0.00,,,-99.99,,2013-03-01 07:01:00,
2013-03-01 00:11:00,29.0,27.0,-100.00,ESE,120,0.0,1.0,92,0.00,,,-99.99,,2013-03-01 07:11:00,
2013-03-01 00:21:00,29.0,27.0,-100.00,ESE,120,0.0,1.0,92,0.00,,,-99.99,,2013-03-01 07:21:00,
2013-03-01 00:31:00,29.0,27.0,-100.00,ESE,120,0.0,0.0,93,0.00,,,-99.99,,2013-03-01 07:31:00,
2013-03-01 00:42:00,28.0,27.0,-100.00,ESE,120,0.0,0.0,93,0.00,,,-99.99,,2013-03-01 07:42:00,
2013-03-01 00:51:00,28.0,27.0,-100.00,ESE,120,0.0,0.0,93,0.00,,,-99.99,,2013-03-01 07:51:00,
2013-03-01 01:01:00,28.0,27.0,-100.00,WSW,245,0.0,1.0,93,0.00,,,-99.99,,2013-03-01 08:01:00,
2013-03-01 01:11:00,28.0,27.0,-100.00,WSW,245,0.0,1.0,93,0.00,,,-99.99,,2013-03-01 08:11:00,
2013-03-01 01:21:00,28.0,27.0,-100.00,SW,220,0.0,1.0,94,0.00,,,-99.99,,2013-03-01 08:21:00,
2013-03-01 01:31:00,28.0,27.0,-100.00,SW,220,0.0,0.0,94,0.00,,,-99.99,,2013-03-01 08:31:00,
2013-03-01 01:42:00,28.0,27.0,-100.00,SSW,200,0.0,1.0,94,0.00,,,-99.99,,2013-03-01 08:42:00,
2013-03-01 01:53:00,28.0,27.0,-100.00,SE,125,0.0,1.0,94,0.00,,,-99.99,,2013-03-01 08:53:00,
2013-03-01 02:01:00,28.0,27.0,-100.00,ESE,110,0.0,1.0,94,0.00,,,-99.99,,2013-03-01 09:01:00,
2013-03-01 02:11:00,29.0,28.0,-100.00,ESE,110,1.0,4.0,94,0.00,,,-99.99,,2013-03-01 09:11:00,
2013-03-01 02:21:00,29.0,27.0,-100.00,ESE,120,0.0,4.0,94,0.00,,,-99.99,,2013-03-01 09:21:00,
2013-03-01 02:31:00,28.0,27.0,-100.00,WNW,300,0.0,1.0,95,0.00,,,-99.99,,2013-03-01 09:31:00,
2013-03-01 02:42:00,28.0,27.0,-100.00,North,355,1.0,4.0,95,0.00,,,-99.99,,2013-03-01 09:42:00,
2013-03-01 02:52:00,28.0,27.0,-100.00,NW,310,0.0,4.0,95,0.00,,,-99.99,,2013-03-01 09:52:00,
2013-03-01 03:01:00,28.0,27.0,-100.00,NNW,340,0.0,1.0,95,0.00,,,-99.99,,2013-03-01 10:01:00,
2013-03-01 03:11:00,28.0,27.0,-100.00,NW,325,1.0,2.0,95,0.00,,,-99.99,,2013-03-01 10:11:00,
2013-03-01 03:21:00,28.0,27.0,-100.00,SE,125,0.0,3.0,95,0.00,,,-99.99,,2013-03-01 10:21:00,
2013-03-01 03:31:00,28.0,27.0,-100.00,East,100,0.0,3.0,95,0.00,,,-99.99,,2013-03-01 10:31:00,
2013-03-01 03:41:00,28.0,27.0,-100.00,ESE,120,0.0,2.0,95,0.00,,,-99.99,,2013-03-01 10:41:00,
2013-03-01 03:51:00,28.0,27.0,-100.00,NW,325,1.0,2.0,95,0.00,,,-99.99,,2013-03-01 10:51:00,
2013-03-01 04:01:00,28.0,27.0,-100.00,NW,325,0.0,2.0,95,0.00,,,-99.99,,2013-03-01 11:01:00,
2013-03-01 04:11:00,28.0,27.0,-100.00,NW,325,0.0,0.0,96,0.00,,,-99.99,,2013-03-01 11:11:00,
2013-03-01 04:22:00,28.0,27.0,-100.00,NW,325,0.0,0.0,96,0.00,,,-99.99,,2013-03-01 11:22:00,
2013-03-01 04:31:00,28.0,27.0,-100.00,NW,305,0.0,0.0,96,0.00,,,-99.99,,2013-03-01 11:31:00,
2013-03-01 04:41:00,28.0,27.0,-100.00,WNW,300,0.0,1.0,96,0.00,,,-99.99,,2013-03-01 11:41:00,
2013-03-01 04:52:00,28.0,27.0,-100.00,SW,230,1.0,3.0,96,0.00,,,-99.99,,2013-03-01 11:52:00,
2013-03-01 05:01:00,28.0,27.0,-100.00,SSE,160,0.0,2.0,96,0.00,,,-99.99,,2013-03-01 12:01:00,
2013-03-01 05:11:00,28.0,27.0,-100.00,SSE,155,0.0,1.0,96,0.00,,,-99.99,,2013-03-01 12:11:00,
2013-03-01 05:21:00,28.0,27.0,-100.00,SE,145,0.0,2.0,96,0.00,,,-99.99,,2013-03-01 12:21:00,
2013-03-01 05:32:00,28.0,27.0,-100.00,West,265,0.0,2.0,96,0.00,,,-99.99,,2013-03-01 12:32:00,
2013-03-01 05:42:00,28.0,27.0,-100.00,WSW,245,1.0,3.0,96,0.00,,,-99.99,,2013-03-01 12:42:00,
2013-03-01 05:52:00,28.0,26.0,-100.00,SW,230,0.0,6.0,96,0.00,,,-99.99,,2013-03-01 12:52:00,
2013-03-01 06:01:00,28.0,27.0,-100.00,NNW,335,1.0,5.0,96,0.00,,,-99.99,,2013-03-01 13:01:00,
2013-03-01 06:11:00,28.0,27.0,-100.00,SE,125,1.0,6.0,96,0.00,,,-99.99,,2013-03-01 13:11:00,
2013-03-01 06:21:00,28.0,27.0,-100.00,NE,35,4.0,6.0,96,0.00,,,-99.99,,2013-03-01 13:21:00,
2013-03-01 06:32:00,28.0,27.0,-100.00,NNW,340,1.0,6.0,96,0.00,,,-99.99,,2013-03-01 13:32:00,
2013-03-01 06:41:00,28.0,27.0,-100.00,North,5,2.0,5.0,96,0.00,,,-99.99,,2013-03-01 13:41:00,
2013-03-01 06:51:00,28.0,26.0,-100.00,NNW,345,2.0,3.0,96,0.00,,,-99.99,,2013-03-01 13:51:00,
2013-03-01 07:01:00,27.0,26.0,-100.00,South,190,0.0,4.0,96,0.00,,,-99.99,,2013-03-01 14:01:00,
2013-03-01 07:11:00,27.0,26.0,-100.00,WNW,295,0.0,2.0,96,0.00,,,-99.99,,2013-03-01 14:11:00,
2013-03-01 07:21:00,27.0,26.0,-100.00,NW,315,0.0,2.0,96,0.00,,,-99.99,,2013-03-01 14:21:00,
2013-03-01 07:32:00,27.0,26.0,-100.00,NW,315,2.0,3.0,96,0.00,,,-99.99,,2013-03-01 14:32:00,
2013-03-01 07:41:00,28.0,27.0,-100.00,NNE,15,4.0,6.0,96,0.00,,,-99.99,,2013-03-01 14:41:00,
2013-03-01 07:52:00,28.0,27.0,-100.00,North,0,2.0,6.0,96,0.00,,,-99.99,,2013-03-01 14:52:00,
2013-03-01 08:01:00,28.0,27.0,-100.00,SE,145,1.0,4.0,96,0.00,,,-99.99,,2013-03-01 15:01:00,
2013-03-01 08:11:00,28.0,27.0,-100.00,SSW,195,1.0,4.0,96,0.00,,,-99.99,,2013-03-01 15:11:00,
2013-03-01 08:21:00,28.0,27.0,-100.00,SSE,165,2.0,3.0,96,0.00,,,-99.99,,2013-03-01 15:21:00,
2013-03-01 08:31:00,28.0,27.0,-100.00,SSE,165,0.0,3.0,96,0.00,,,-99.99,,2013-03-01 15:31:00,
2013-03-01 08:42:00,28.0,27.0,-100.00,SSW,195,2.0,6.0,96,0.00,,,-99.99,,2013-03-01 15:42:00,
2013-03-01 08:51:00,29.0,28.0,-100.00,SSE,155,0.0,2.0,95,0.00,,,-99.99,,2013-03-01 15:51:00,
2013-03-01 09:01:00,29.0,28.0,-100.00,South,190,1.0,4.0,95,0.00,,,-99.99,,2013-03-01 16:01:00,
2013-03-01 09:11:00,29.0,28.0,-100.00,SSE,155,1.0,4.0,94,0.00,,,-99.99,,2013-03-01 16:11:00,
2013-03-01 09:21:00,29.0,28.0,-100.00,SSE,150,2.0,4.0,94,0.00,,,-99.99,,2013-03-01 16:21:00,
2013-03-01 09:31:00,30.0,28.0,-100.00,SSE,160,1.0,3.0,93,0.00,,,-99.99,,2013-03-01 16:31:00,
2013-03-01 09:41:00,30.0,28.0,-100.00,SSE,165,0.0,3.0,92,0.00,,,-99.99,,2013-03-01 16:41:00,
2013-03-01 09:51:00,31.0,29.0,-100.00,SW,225,0.0,1.0,91,0.00,,,-99.99,,2013-03-01 16:51:00,
2013-03-01 10:01:00,31.0,29.0,-100.00,South,190,1.0,2.0,90,0.00,,,-99.99,,2013-03-01 17:01:00,
2013-03-01 10:11:00,31.0,28.0,-100.00,SSE,160,1.0,2.0,88,0.00,,,-99.99,,2013-03-01 17:11:00,
2013-03-01 10:21:00,31.0,28.0,-100.00,South,170,1.0,4.0,86,0.00,,,-99.99,,2013-03-01 17:21:00,
2013-03-01 10:31:00,32.0,28.0,-100.00,SSE,160,2.0,3.0,85,0.10,,,-99.99,,2013-03-01 17:31:00,
2013-03-01 10:41:00,33.0,29.0,-100.00,South,175,2.0,4.0,83,0.00,,,-99.99,,2013-03-01 17:41:00,
2013-03-01 10:52:00,33.0,28.0,-100.00,SSE,155,1.0,4.0,82,0.00,,,-99.99,,2013-03-01 17:52:00,
2013-03-01 11:01:00,33.0,28.0,-100.00,SSE,155,1.0,3.0,81,0.00,,,-99.99,,2013-03-01 18:01:00,
2013-03-01 11:11:00,34.0,28.0,-100.00,SE,140,2.0,4.0,80,0.00,,,-99.99,,2013-03-01 18:11:00,
2013-03-01 11:21:00,35.0,29.0,-100.00,SSE,165,1.0,2.0,79,0.00,,,-99.99,,2013-03-01 18:21:00,
2013-03-01 11:31:00,35.0,29.0,-100.00,SSE,150,0.0,2.0,79,0.00,,,-99.99,,2013-03-01 18:31:00,
2013-03-01 11:41:00,35.0,29.0,-100.00,SSW,195,0.0,3.0,78,0.00,,,-99.99,,2013-03-01 18:41:00,
2013-03-01 11:52:00,35.0,28.0,-100.00,SSW,200,1.0,2.0,76,0.00,,,-99.99,,2013-03-01 18:52:00,
2013-03-01 12:01:00,36.0,29.0,-100.00,South,180,0.0,2.0,75,0.00,,,-99.99,,2013-03-01 19:01:00,
2013-03-01 12:11:00,36.0,28.0,-100.00,South,170,1.0,2.0,72,0.00,,,-99.99,,2013-03-01 19:11:00,
2013-03-01 12:21:00,37.0,28.0,-100.00,SSE,165,1.0,3.0,71,0.00,,,-99.99,,2013-03-01 19:21:00,
2013-03-01 12:31:00,37.0,28.0,-100.00,SE,140,1.0,2.0,69,0.00,,,-99.99,,2013-03-01 19:31:00,
2013-03-01 12:41:00,38.0,28.0,-100.00,South,170,2.0,2.0,68,0.00,,,-99.99,,2013-03-01 19:41:00,
2013-03-01 12:51:00,38.0,28.0,-100.00,SSE,165,2.0,4.0,66,0.00,,,-99.99,,2013-03-01 19:51:00,
2013-03-01 13:01:00,38.0,28.0,-100.00,SSE,160,2.0,4.0,66,0.00,,,-99.99,,2013-03-01 20:01:00,
2013-03-01 13:11:00,38.0,28.0,-100.00,South,170,1.0,5.0,64,0.00,,,-99.99,,2013-03-01 20:11:00,
2013-03-01 13:21:00,40.0,29.0,-100.00,East,100,0.0,3.0,62,0.00,,,-99.99,,2013-03-01 20:21:00,
2013-03-01 13:31:00,41.0,28.0,-100.00,SSE,165,1.0,4.0,59,0.00,,,-99.99,,2013-03-01 20:31:00,
2013-03-01 13:41:00,41.0,27.0,-100.00,SSE,155,2.0,5.0,58,0.00,,,-99.99,,2013-03-01 20:41:00,
2013-03-01 13:51:00,41.0,27.0,-100.00,South,180,2.0,5.0,57,0.00,,,-99.99,,2013-03-01 20:51:00,
2013-03-01 14:01:00,41.0,27.0,-100.00,SSE,165,3.0,6.0,56,0.00,,,-99.99,,2013-03-01 21:01:00,
2013-03-01 14:11:00,41.0,26.0,-100.00,SSE,165,2.0,7.0,56,0.00,,,-99.99,,2013-03-01 21:11:00,
2013-03-01 14:21:00,41.0,26.0,-100.00,SSE,160,3.0,9.0,56,0.00,,,-99.99,,2013-03-01 21:21:00,
2013-03-01 14:31:00,40.0,26.0,-100.00,South,180,6.0,9.0,55,0.00,,,-99.99,,2013-03-01 21:31:00,
2013-03-01 14:41:00,40.0,26.0,-100.00,South,185,6.0,11.0,54,0.00,,,-99.99,,2013-03-01 21:41:00,
2013-03-01 14:51:00,40.0,26.0,-100.00,South,170,4.0,9.0,55,0.00,,,-99.99,,2013-03-01 21:51:00,
2013-03-01 15:01:00,40.0,26.0,-100.00,South,170,4.0,9.0,55,0.00,,,-99.99,,2013-03-01 22:01:00,
2013-03-01 15:11:00,41.0,26.0,-100.00,SE,145,4.0,9.0,54,0.00,,,-99.99,,2013-03-01 22:11:00,
2013-03-01 15:21:00,41.0,26.0,-100.00,South,190,4.0,9.0,53,0.00,,,-99.99,,2013-03-01 22:21:00,
2013-03-01 15:31:00,42.0,26.0,-100.00,South,170,4.0,12.0,53,0.00,,,-99.99,,2013-03-01 22:31:00,
2013-03-01 15:41:00,41.0,26.0,-100.00,SE,125,3.0,9.0,53,0.00,,,-99.99,,2013-03-01 22:41:00,
2013-03-01 15:51:00,41.0,25.0,-100.00,SSW,205,3.0,9.0,53,0.00,,,-99.99,,2013-03-01 22:51:00,
2013-03-01 16:01:00,41.0,25.0,-100.00,SSE,155,4.0,11.0,52,0.00,,,-99.99,,2013-03-01 23:01:00,
2013-03-01 16:11:00,40.0,24.0,-100.00,South,170,5.0,12.0,52,0.00,,,-99.99,,2013-03-01 23:11:00,
2013-03-01 16:21:00,40.0,24.0,-100.00,SSE,160,3.0,10.0,52,0.00,,,-99.99,,2013-03-01 23:21:00,
2013-03-01 16:31:00,40.0,24.0,-100.00,SSE,150,4.0,9.0,52,0.00,,,-99.99,,2013-03-01 23:31:00,
2013-03-01 16:41:00,40.0,25.0,-100.00,South,185,1.0,6.0,53,0.00,,,-99.99,,2013-03-01 23:41:00,
2013-03-01 16:52:00,40.0,24.0,-100.00,South,190,3.0,5.0,52,0.00,,,-99.99,,2013-03-01 23:52:00,
2013-03-01 17:01:00,40.0,24.0,-100.00,NW,305,1.0,5.0,53,0.00,,,-99.99,,2013-03-02 00:01:00,
2013-03-01 17:11:00,40.0,25.0,-100.00,North,0,1.0,4.0,53,0.00,,,-99.99,,2013-03-02 00:11:00,
2013-03-01 17:21:00,40.0,24.0,-100.00,NNW,345,0.0,3.0,53,0.00,,,-99.99,,2013-03-02 00:21:00,
2013-03-01 17:31:00,40.0,24.0,-100.00,NW,315,0.0,1.0,53,0.00,,,-99.99,,2013-03-02 00:31:00,
2013-03-01 17:41:00,39.0,24.0,-100.00,NNW,330,0.0,2.0,54,0.00,,,-99.99,,2013-03-02 00:41:00,
2013-03-01 17:52:00,38.0,24.0,-100.00,SE,145,0.0,4.0,56,0.00,,,-99.99,,2013-03-02 00:52:00,
2013-03-01 18:01:00,38.0,25.0,-100.00,NNW,340,2.0,4.0,58,0.00,,,-99.99,,2013-03-02 01:01:00,
2013-03-01 18:11:00,38.0,25.0,-100.00,ESE,105,0.0,2.0,59,0.00,,,-99.99,,2013-03-02 01:11:00,
2013-03-01 18:21:00,37.0,25.0,-100.00,SSE,165,0.0,2.0,59,0.00,,,-99.99,,2013-03-02 01:21:00,
2013-03-01 18:31:00,37.0,25.0,-100.00,NW,315,1.0,2.0,60,0.00,,,-99.99,,2013-03-02 01:31:00,
2013-03-01 18:41:00,37.0,25.0,-100.00,NW,320,1.0,2.0,61,0.00,,,-99.99,,2013-03-02 01:41:00,
2013-03-01 18:51:00,37.0,25.0,-100.00,North,355,0.0,1.0,61,0.00,,,-99.99,,2013-03-02 01:51:00,
2013-03-01 19:01:00,36.0,25.0,-100.00,SE,140,0.0,1.0,62,0.00,,,-99.99,,2013-03-02 02:01:00,
2013-03-01 19:11:00,36.0,25.0,-100.00,SW,220,0.0,3.0,63,0.00,,,-99.99,,2013-03-02 02:11:00,
2013-03-01 19:21:00,36.0,25.0,-100.00,North,0,1.0,3.0,64,0.00,,,-99.99,,2013-03-02 02:21:00,
2013-03-01 19:31:00,36.0,26.0,-100.00,SSW,195,0.0,3.0,65,0.00,,,-99.99,,2013-03-02 02:31:00,
2013-03-01 19:41:00,36.0,26.0,-100.00,NNE,15,0.0,4.0,66,0.00,,,-99.99,,2013-03-02 02:41:00,
2013-03-01 19:52:00,36.0,26.0,-100.00,West,280,0.0,3.0,67,0.00,,,-99.99,,2013-03-02 02:52:00,
2013-03-01 20:01:00,35.0,26.0,-100.00,West,260,0.0,1.0,68,0.00,,,-99.99,,2013-03-02 03:01:00,
2013-03-01 20:11:00,36.0,27.0,-100.00,NNW,340,1.0,4.0,69,0.00,,,-99.99,,2013-03-02 03:11:00,
2013-03-01 20:21:00,35.0,27.0,-100.00,SSW,200,2.0,4.0,70,0.00,,,-99.99,,2013-03-02 03:21:00,
2013-03-01 20:32:00,35.0,27.0,-100.00,North,0,1.0,3.0,71,0.00,,,-99.99,,2013-03-02 03:32:00,
2013-03-01 20:41:00,35.0,27.0,-100.00,NNW,330,1.0,2.0,72,0.00,,,-99.99,,2013-03-02 03:41:00,
2013-03-01 20:52:00,35.0,27.0,-100.00,ENE,75,0.0,4.0,72,0.00,,,-99.99,,2013-03-02 03:52:00,
2013-03-01 21:01:00,35.0,27.0,-100.00,NNE,25,1.0,4.0,72,0.00,,,-99.99,,2013-03-02 04:01:00,
2013-03-01 21:11:00,35.0,27.0,-100.00,WSW,250,0.0,3.0,72,0.00,,,-99.99,,2013-03-02 04:11:00,
2013-03-01 21:21:00,35.0,27.0,-100.00,WSW,250,0.0,0.0,73,0.00,,,-99.99,,2013-03-02 04:21:00,
2013-03-01 21:31:00,35.0,28.0,-100.00,North,0,0.0,3.0,74,0.00,,,-99.99,,2013-03-02 04:31:00,
2013-03-01 21:41:00,35.0,27.0,-100.00,NNW,345,0.0,1.0,74,0.00,,,-99.99,,2013-03-02 04:41:00,
2013-03-01 21:51:00,35.0,28.0,-100.00,East,90,0.0,2.0,75,0.00,,,-99.99,,2013-03-02 04:51:00,
2013-03-01 22:01:00,35.0,28.0,-100.00,SW,220,0.0,2.0,76,0.00,,,-99.99,,2013-03-02 05:01:00,
2013-03-01 22:12:00,35.0,28.0,-100.00,NNW,330,0.0,2.0,76,0.00,,,-99.99,,2013-03-02 05:12:00,
2013-03-01 22:22:00,34.0,28.0,-100.00,SW,225,0.0,1.0,77,0.00,,,-99.99,,2013-03-02 05:22:00,
2013-03-01 22:31:00,34.0,28.0,-100.00,North,10,0.0,1.0,78,0.00,,,-99.99,,2013-03-02 05:31:00,
2013-03-01 22:41:00,34.0,28.0,-100.00,North,0,0.0,2.0,78,0.00,,,-99.99,,2013-03-02 05:41:00,
2013-03-01 22:51:00,34.0,28.0,-100.00,North,10,0.0,2.0,79,0.00,,,-99.99,,2013-03-02 05:51:00,
2013-03-01 23:01:00,34.0,28.0,-100.00,ENE,70,0.0,1.0,79,0.00,,,-99.99,,2013-03-02 06:01:00,
2013-03-01 23:11:00,34.0,29.0,-100.00,NW,320,1.0,2.0,80,0.00,,,-99.99,,2013-03-02 06:11:00,
2013-03-01 23:21:00,34.0,29.0,-100.00,SE,140,0.0,1.0,80,0.00,,,-99.99,,2013-03-02 06:21:00,
2013-03-01 23:31:00,34.0,29.0,-100.00,NNW,340,0.0,3.0,80,0.00,,,-99.99,,2013-03-02 06:31:00,
2013-03-01 23:41:00,34.0,29.0,-100.00,WSW,255,0.0,1.0,81,0.00,,,-99.99,,2013-03-02 06:41:00,
2013-03-01 23:51:00,33.0,29.0,-100.00,West,270,0.0,0.0,81,0.00,,,-99.99,,2013-03-02 06:51:00,